GW4722 Weather Reports


Display with metric or nautical units.
time (UTC)temp
F
wind
direction
speed
MPH
gust
MPH
rain 1hr
in
rain 24hr
in
rain mn
in
humidity
%
barometer
mb
20260507174515 65 272 2.0 3.0 0.00 0.00 0.00 38 1010.9
20260507174013 65 344 5.0 9.0 0.00 0.00 0.00 38 1010.9
20260507173510 66 205 1.0 3.0 0.00 0.00 0.00 40 1011.0
20260507173007 65 33 1.0 3.0 0.00 0.00 0.00 39 1011.2
20260507172503 66 59 1.0 3.0 0.00 0.00 0.00 40 1011.4
20260507172000 65 83 0.0 2.0 0.00 0.00 0.00 39 1011.3
20260507171455 65 65 1.0 4.0 0.00 0.00 0.00 40 1011.4
20260507170953 64 64 0.0 1.0 0.00 0.00 0.00 42 1011.5
20260507170449 65 39 2.0 6.0 0.00 0.00 0.00 47 1011.7
20260507165946 65 45 1.0 2.0 0.00 0.00 0.00 42 1011.7
20260507165442 63 118 1.0 2.0 0.00 0.00 0.00 40 1011.7
20260507164938 62 343 3.0 6.0 0.00 0.00 0.00 51 1012.0
20260507164435 64 310 3.0 8.0 0.00 0.00 0.00 44 1012.1
20260507163932 62 347 2.0 4.0 0.00 0.00 0.00 45 1012.1
20260507163429 63 329 2.0 4.0 0.00 0.00 0.00 47 1012.0
20260507162926 62 302 1.0 6.0 0.00 0.00 0.00 45 1012.2
20260507162421 62 42 4.0 4.0 0.00 0.00 0.00 50 1012.3
20260507161919 63 56 0.0 2.0 0.00 0.00 0.00 43 1012.2
20260507161415 62 85 0.0 7.0 0.00 0.00 0.00 46 1012.3
20260507160912 62 89 1.0 3.0 0.00 0.00 0.00 43 1012.3
20260507160408 62 130 1.0 2.0 0.00 0.00 0.00 43 1012.8
20260507155904 61 333 1.0 2.0 0.00 0.00 0.00 52 1012.7
20260507155400 60 205 2.0 6.0 0.00 0.00 0.00 42 1012.9
20260507154857 60 67 4.0 7.0 0.00 0.00 0.00 45 1012.8
20260507154354 61 289 4.0 4.0 0.00 0.00 0.00 46 1013.2
20260507153851 60 263 1.0 3.0 0.00 0.00 0.00 48 1013.2
20260507153347 59 270 1.0 7.0 0.00 0.00 0.00 45 1013.2
20260507152844 60 283 4.0 6.0 0.00 0.00 0.00 48 1013.0
20260507152340 60 73 1.0 3.0 0.00 0.00 0.00 43 1013.2
20260507151836 59 166 0.0 1.0 0.00 0.00 0.00 46 1013.2
20260507151333 58 312 2.0 4.0 0.00 0.00 0.00 49 1013.4
20260507150830 58 346 3.0 6.0 0.00 0.00 0.00 46 1013.7
20260507150326 57 45 1.0 2.0 0.00 0.00 0.00 51 1013.6
20260507145822 57 343 2.0 7.0 0.00 0.00 0.00 48 1013.8
20260507145319 57 315 3.0 8.0 0.00 0.00 0.00 47 1014.0
20260507144816 57 309 2.0 7.0 0.00 0.00 0.00 49 1014.0
20260507144314 58 317 3.0 6.0 0.00 0.00 0.00 45 1014.1
20260507143810 59 31 1.0 2.0 0.00 0.00 0.00 45 1014.2
20260507143307 58 338 2.0 3.0 0.00 0.00 0.00 51 1014.3
20260507142803 58 294 2.0 4.0 0.00 0.00 0.00 55 1014.2
20260507142300 57 26 2.0 4.0 0.00 0.00 0.00 49 1014.1
20260507141756 57 3 3.0 4.0 0.00 0.00 0.00 52 1014.3
20260507141254 58 18 3.0 7.0 0.00 0.00 0.00 52 1014.2
20260507140749 60 25 2.0 3.0 0.00 0.00 0.00 55 1014.2
20260507140247 58 50 1.0 3.0 0.00 0.00 0.00 50 1014.3
20260507135744 57 341 3.0 4.0 0.00 0.00 0.00 51 1014.3
20260507135241 56 295 4.0 6.0 0.00 0.00 0.00 49 1014.7
20260507134737 56 42 0.0 1.0 0.00 0.00 0.00 59 1014.6
20260507134234 57 46 1.0 2.0 0.00 0.00 0.00 57 1014.7
20260507133730 56 41 0.0 1.0 0.00 0.00 0.00 58 1014.6
20260507133227 55 33 0.0 1.0 0.00 0.00 0.00 60 1014.7
20260507132724 55 54 0.0 1.0 0.00 0.00 0.00 59 1014.8
20260507132221 54 312 1.0 2.0 0.00 0.00 0.00 60 1014.8
20260507131717 54 7 1.0 2.0 0.00 0.00 0.00 63 1014.8
20260507131215 54 76 0.0 1.0 0.00 0.00 0.00 58 1014.8
20260507130712 53 18 0.0 0.0 0.00 0.00 0.00 65 1015.0
20260507130210 53 325 1.0 3.0 0.00 0.00 0.00 61 1014.9
20260507125708 53 40 0.0 0.0 0.00 0.00 0.00 63 1015.0
20260507125205 53 55 0.0 0.0 0.00 0.00 0.00 63 1014.9
20260507124701 53 46 0.0 1.0 0.00 0.00 0.00 63 1015.1
20260507124159 53 358 0.0 0.0 0.00 0.00 0.00 62 1015.1
20260507123657 53 85 0.0 1.0 0.00 0.00 0.00 63 1015.0
20260507123154 53 56 0.0 0.0 0.00 0.00 0.00 62 1015.0
20260507122649 53 56 0.0 0.0 0.00 0.00 0.00 60 1014.9
20260507122145 52 53 0.0 0.0 0.00 0.00 0.00 63 1014.8
20260507121641 52 54 0.0 0.0 0.00 0.00 0.00 63 1014.9
20260507121137 52 52 0.0 1.0 0.00 0.00 0.00 62 1015.0
20260507120634 52 52 0.0 1.0 0.00 0.00 0.00 63 1014.7
20260507120130 52 53 0.0 0.0 0.00 0.00 0.00 62 1014.6
20260507115627 52 51 0.0 1.0 0.00 0.00 0.00 62 1014.6
20260507115122 52 28 0.0 2.0 0.00 0.00 0.00 64 1014.8
20260507114618 52 42 0.0 1.0 0.00 0.00 0.00 63 1014.7
20260507114116 52 13 0.0 2.0 0.00 0.00 0.00 64 1014.8
20260507113613 52 333 0.0 1.0 0.00 0.00 0.00 62 1014.8
20260507113110 52 88 0.0 1.0 0.00 0.00 0.00 66 1014.6
20260507112608 52 26 0.0 1.0 0.00 0.00 0.00 68 1014.8
20260507112104 52 11 0.0 0.0 0.00 0.00 0.00 66 1014.7
20260507111602 51 315 1.0 1.0 0.00 0.00 0.00 66 1014.7
20260507111058 51 348 0.0 1.0 0.00 0.00 0.00 71 1014.7
20260507110554 51 44 0.0 0.0 0.00 0.00 0.00 66 1014.7
20260507110051 51 43 0.0 0.0 0.00 0.00 0.00 70 1014.6
20260507105548 51 44 0.0 0.0 0.00 0.00 0.00 68 1014.5
20260507105044 51 45 0.0 0.0 0.00 0.00 0.00 66 1014.3
20260507104542 51 48 0.0 0.0 0.00 0.00 0.00 68 1014.3
20260507104038 51 89 0.0 0.0 0.00 0.00 0.00 69 1014.2
20260507103534 51 6 0.0 0.0 0.00 0.00 0.00 68 1014.0
20260507103031 51 6 0.0 0.0 0.00 0.00 0.00 67 1013.9
20260507102527 51 23 0.0 0.0 0.00 0.00 0.00 67 1014.1
20260507102023 51 44 0.0 0.0 0.00 0.00 0.00 67 1014.0
20260507101519 52 41 0.0 1.0 0.00 0.00 0.00 64 1014.0
20260507101016 52 299 0.0 1.0 0.00 0.00 0.00 65 1014.0
20260507100513 52 318 1.0 1.0 0.00 0.00 0.00 65 1013.8
20260507100011 52 351 1.0 2.0 0.00 0.00 0.00 67 1013.8
20260507095509 52 35 1.0 2.0 0.00 0.00 0.00 66 1013.7
20260507095005 52 323 0.0 1.0 0.00 0.00 0.00 75 1013.7
20260507094501 52 29 0.0 0.0 0.00 0.00 0.00 77 1013.6
20260507093959 52 29 0.0 0.0 0.00 0.00 0.00 76 1013.6
20260507093456 52 18 0.0 0.0 0.00 0.00 0.00 74 1013.5
20260507092954 52 4 0.0 0.0 0.00 0.00 0.00 78 1013.6
20260507092450 52 344 0.0 0.0 0.00 0.00 0.00 77 1013.6
20260507091947 52 344 0.0 0.0 0.00 0.00 0.00 76 1013.6
20260507091444 52 336 0.0 1.0 0.00 0.00 0.00 74 1013.7
20260507090940 52 324 1.0 1.0 0.00 0.00 0.00 74 1013.8
20260507090436 52 60 0.0 1.0 0.00 0.00 0.00 74 1013.7
20260507085932 52 30 0.0 0.0 0.00 0.00 0.00 74 1013.7
20260507085430 53 30 0.0 0.0 0.00 0.00 0.00 74 1013.5
20260507084927 53 64 0.0 0.0 0.00 0.00 0.00 74 1013.4
20260507084424 53 331 1.0 2.0 0.00 0.00 0.00 72 1013.6
20260507083921 53 25 0.0 0.0 0.00 0.00 0.00 77 1013.5
20260507083417 53 22 1.0 2.0 0.00 0.00 0.00 76 1013.6
20260507082913 53 30 0.0 1.0 0.00 0.00 0.00 77 1013.7
20260507082409 53 31 0.0 0.0 0.00 0.00 0.00 78 1013.6
20260507081906 53 351 0.0 1.0 0.00 0.00 0.00 77 1013.5
20260507081402 53 52 1.0 2.0 0.00 0.00 0.00 77 1013.4
20260507080859 53 45 0.0 2.0 0.00 0.00 0.00 78 1013.3
20260507080355 53 46 1.0 1.0 0.00 0.00 0.00 81 1013.0
20260507075851 53 48 0.0 0.0 0.00 0.00 0.00 83 1013.3
20260507075347 53 16 0.0 0.0 0.00 0.00 0.00 85 1012.9
20260507074844 53 17 0.0 0.0 0.00 0.00 0.00 84 1013.0
20260507074341 53 33 0.0 0.0 0.00 0.00 0.00 83 1012.8
20260507073838 53 32 0.0 0.0 0.00 0.00 0.00 82 1012.8
20260507073335 54 340 0.0 0.0 0.00 0.00 0.00 81 1012.5
20260507072832 54 20 0.0 1.0 0.00 0.00 0.00 81 1012.8
20260507072329 54 28 1.0 1.0 0.00 0.00 0.00 82 1012.9
20260507071827 54 49 2.0 2.0 0.00 0.00 0.00 79 1012.8
20260507071324 54 17 1.0 1.0 0.00 0.00 0.00 81 1012.8
20260507070820 54 359 1.0 2.0 0.00 0.00 0.00 80 1013.0
20260507070318 54 69 0.0 0.0 0.00 0.00 0.00 81 1012.8
20260507065814 54 13 0.0 0.0 0.00 0.00 0.00 82 1012.8
20260507065310 55 24 0.0 1.0 0.00 0.00 0.00 81 1013.0
20260507064808 55 332 0.0 0.0 0.00 0.00 0.00 81 1013.3
20260507064307 55 302 1.0 1.0 0.00 0.00 0.00 82 1013.3
20260507063804 55 294 0.0 1.0 0.00 0.00 0.00 80 1013.4
20260507063301 55 328 0.0 0.0 0.00 0.00 0.00 82 1013.2
20260507062757 55 98 0.0 0.0 0.00 0.00 0.00 82 1013.4
20260507062254 54 91 0.0 0.0 0.00 0.00 0.00 83 1013.3
20260507061752 55 285 0.0 0.0 0.00 0.00 0.00 84 1013.5
20260507061250 55 286 0.0 1.0 0.00 0.00 0.00 84 1013.4
20260507060748 55 315 0.0 1.0 0.00 0.00 0.00 85 1013.3
20260507060244 54 30 0.0 0.0 0.00 0.00 0.00 82 1013.5
20260507055741 54 15 0.0 0.0 0.00 0.00 0.00 83 1013.6
20260507055236 54 15 0.0 0.0 0.00 0.00 0.00 83 1013.6
20260507054733 55 19 0.0 0.0 0.00 0.00 0.00 84 1013.5
20260507054230 55 15 0.0 0.0 0.00 0.00 0.00 83 1013.3
20260507053727 55 4 0.0 0.0 0.00 0.00 0.00 83 1013.3
20260507053225 55 3 0.0 0.0 0.00 0.00 0.00 82 1013.3
20260507052724 55 359 0.0 0.0 0.00 0.00 0.00 83 1013.2
20260507052219 55 304 1.0 1.0 0.00 0.00 0.00 82 1013.0
20260507051718 55 52 0.0 1.0 0.00 0.00 0.00 82 1013.3
20260507051214 55 53 0.0 1.0 0.00 0.00 0.00 81 1012.9
20260507050710 55 52 0.0 1.0 0.00 0.00 0.00 82 1013.0
20260507050208 55 53 0.0 0.0 0.00 0.00 0.00 81 1013.2
20260507045704 55 98 0.0 0.0 0.00 0.00 0.00 81 1013.2
20260507045200 55 70 0.0 0.0 0.00 0.00 0.00 81 1012.9
20260507044658 55 47 0.0 0.0 0.00 0.00 0.00 81 1013.0
20260507044154 55 36 1.0 1.0 0.00 0.00 0.00 81 1012.9
20260507043651 56 43 0.0 1.0 0.00 0.00 0.00 80 1013.0
20260507043148 56 25 1.0 3.0 0.00 0.00 0.00 78 1012.9
20260507042644 56 34 1.0 1.0 0.00 0.00 0.00 78 1013.3
20260507042139 56 54 0.0 4.0 0.00 0.00 0.00 78 1012.9
20260507041637 56 63 0.0 7.0 0.00 0.00 0.00 78 1013.0
20260507041132 56 339 1.0 2.0 0.00 0.00 0.00 81 1012.8
20260507040630 56 56 0.0 1.0 0.00 0.00 0.00 80 1013.0
20260507040126 56 67 1.0 2.0 0.00 0.24 0.24 81 1013.0
20260507035622 56 60 0.0 1.0 0.00 0.24 0.24 79 1013.0
20260507035118 56 338 1.0 3.0 0.00 0.24 0.24 80 1013.3
20260507034615 56 330 4.0 6.0 0.00 0.24 0.24 80 1013.4
20260507034113 56 28 2.0 3.0 0.00 0.24 0.24 81 1013.2
20260507033611 56 300 1.0 2.0 0.00 0.24 0.24 83 1012.7
20260507033108 56 23 1.0 1.0 0.00 0.24 0.24 82 1012.8
20260507032605 56 48 0.0 3.0 0.00 0.24 0.24 82 1012.9
20260507032101 56 355 0.0 1.0 0.00 0.24 0.24 85 1013.0
20260507031558 56 26 0.0 1.0 0.00 0.24 0.24 85 1012.9
20260507031055 56 13 0.0 2.0 0.00 0.24 0.24 84 1013.0
20260507030551 56 345 0.0 2.0 0.00 0.24 0.24 83 1013.2
20260507030049 56 32 1.0 2.0 0.00 0.24 0.24 84 1013.3
20260507025546 57 31 2.0 4.0 0.00 0.24 0.24 84 1013.2
20260507025043 57 154 2.0 2.0 0.00 0.24 0.24 86 1013.0
20260507024541 57 220 0.0 2.0 0.00 0.24 0.24 85 1013.0
20260507024038 57 268 2.0 6.0 0.00 0.24 0.24 84 1012.8
20260507023533 57 249 2.0 4.0 0.00 0.24 0.24 85 1012.8
20260507023032 57 199 3.0 3.0 0.00 0.24 0.24 85 1012.6
20260507022528 57 136 0.0 2.0 0.00 0.24 0.24 84 1012.6
20260507022029 57 103 1.0 3.0 0.00 0.24 0.24 84 1012.5
20260507021525 58 111 0.0 1.0 0.00 0.24 0.24 84 1012.3
20260507021022 58 105 2.0 3.0 0.00 0.24 0.24 84 1012.3
20260507020519 58 104 1.0 4.0 0.00 0.24 0.24 83 1012.3
20260507020015 58 83 1.0 3.0 0.00 0.24 0.24 84 1012.2
20260507015514 58 67 0.0 1.0 0.00 0.24 0.24 84 1012.5
20260507015011 58 342 3.0 4.0 0.00 0.24 0.24 84 1012.1
20260507014507 58 10 2.0 4.0 0.00 0.24 0.24 83 1012.3
20260507014003 58 346 2.0 2.0 0.00 0.24 0.24 85 1012.0
20260507013500 58 70 1.0 1.0 0.00 0.24 0.24 84 1012.3
20260507012957 58 41 1.0 2.0 0.00 0.24 0.24 85 1012.4
20260507012454 58 28 0.0 1.0 0.00 0.24 0.24 85 1012.4
20260507011951 58 50 1.0 2.0 0.00 0.24 0.24 85 1012.1
20260507011448 58 44 0.0 2.0 0.00 0.24 0.24 85 1012.0
20260507010943 59 55 1.0 1.0 0.00 0.24 0.24 86 1011.9
20260507010438 59 70 0.0 1.0 0.00 0.24 0.24 84 1011.8
20260507005935 59 58 0.0 0.0 0.00 0.24 0.24 84 1011.9
20260507005433 59 73 0.0 2.0 0.00 0.24 0.24 85 1011.7
20260507004929 59 52 0.0 2.0 0.00 0.24 0.24 84 1011.7
20260507004426 60 56 1.0 3.0 0.00 0.24 0.24 84 1012.0
20260507003923 60 55 0.0 2.0 0.00 0.24 0.24 85 1012.3
20260507003418 60 41 0.0 0.0 0.00 0.24 0.24 84 1012.1
20260507002914 61 61 0.0 4.0 0.00 0.24 0.24 85 1011.9
20260507002410 61 68 0.0 2.0 0.00 0.24 0.24 84 1011.9
20260507001907 61 103 0.0 2.0 0.00 0.24 0.24 82 1011.5
20260507001404 61 44 2.0 3.0 0.00 0.24 0.24 82 1011.7
20260507000902 61 72 0.0 1.0 0.00 0.24 0.24 83 1011.5
20260507000357 61 14 1.0 2.0 0.00 0.24 0.24 83 1011.3
20260506235853 62 358 0.0 1.0 0.00 0.24 0.24 84 1011.4
20260506235350 62 23 0.0 1.0 0.00 0.24 0.24 83 1011.6
20260506234845 62 298 1.0 3.0 0.00 0.24 0.24 83 1011.3
20260506234344 62 38 0.0 0.0 0.00 0.24 0.24 88 1011.4
20260506233841 62 127 0.0 1.0 0.00 0.24 0.24 87 1011.4
20260506233337 63 91 0.0 2.0 0.00 0.24 0.24 86 1011.1
20260506232834 62 165 0.0 1.0 0.00 0.24 0.24 85 1011.1
20260506232330 63 94 0.0 1.0 0.00 0.24 0.24 87 1010.6
20260506231826 63 73 0.0 1.0 0.00 0.24 0.24 85 1010.6
20260506231324 63 90 0.0 2.0 0.00 0.24 0.24 84 1010.6
20260506230821 64 258 0.0 1.0 0.00 0.24 0.24 84 1010.6
20260506230318 64 193 0.0 1.0 0.00 0.24 0.24 85 1010.5
20260506225814 64 50 0.0 1.0 0.00 0.24 0.24 85 1010.4
20260506225312 64 231 0.0 2.0 0.00 0.24 0.24 85 1010.3
20260506224808 64 330 2.0 2.0 0.00 0.24 0.24 85 1010.5
20260506224306 64 39 1.0 3.0 0.00 0.24 0.24 87 1010.3
20260506223802 65 127 0.0 1.0 0.00 0.24 0.24 88 1010.2
20260506223257 65 137 0.0 0.0 0.00 0.24 0.24 88 1010.4
20260506222754 65 341 2.0 3.0 0.00 0.24 0.24 86 1010.3
20260506222250 65 287 1.0 1.0 0.00 0.24 0.24 87 1010.3
20260506221748 64 240 1.0 3.0 0.00 0.24 0.24 87 1010.1
20260506221246 65 340 2.0 2.0 0.00 0.24 0.24 88 1009.9
20260506220743 65 57 0.0 2.0 0.00 0.24 0.24 88 1009.9
20260506220237 66 43 0.0 0.0 0.00 0.24 0.24 87 1009.9
20260506215735 66 148 0.0 0.0 0.00 0.24 0.24 87 1009.6
20260506215230 66 211 0.0 2.0 0.00 0.24 0.24 88 1009.7
20260506214727 66 180 1.0 3.0 0.00 0.24 0.24 88 1009.5
20260506214224 66 305 0.0 0.0 0.00 0.24 0.24 87 1009.5
20260506213722 66 25 0.0 1.0 0.00 0.24 0.24 87 1009.6
20260506213219 66 335 1.0 1.0 0.00 0.24 0.24 91 1009.4
20260506212716 65 316 2.0 2.0 0.00 0.24 0.24 94 1009.4
20260506212212 65 325 1.0 1.0 0.00 0.24 0.24 94 1009.4
20260506211707 65 1 0.0 0.0 0.00 0.24 0.24 95 1009.6
20260506211204 65 316 0.0 3.0 0.00 0.24 0.24 94 1009.4
20260506210701 65 321 0.0 2.0 0.00 0.24 0.24 94 1009.6
20260506210158 65 283 2.0 3.0 0.19 0.24 0.24 93 1009.4
20260506205655 65 301 2.0 3.0 0.35 0.24 0.24 94 1009.2
20260506205150 66 316 4.0 6.0 0.05 0.19 0.19 94 1009.0
20260506204648 66 212 1.0 1.0 0.00 0.18 0.18 93 1008.7
20260506204144 66 158 0.0 0.0 0.00 0.18 0.18 93 1009.0
20260506203642 66 162 0.0 1.0 0.00 0.18 0.18 92 1008.8
20260506203139 66 148 0.0 0.0 0.00 0.18 0.18 92 1008.8
20260506202637 66 148 0.0 1.0 0.00 0.18 0.18 92 1008.7
20260506202133 67 189 0.0 1.0 0.00 0.18 0.18 92 1008.7
20260506201630 67 145 1.0 2.0 0.00 0.18 0.18 91 1008.8
20260506201126 67 168 0.0 1.0 0.00 0.18 0.18 91 1008.7
20260506200623 67 142 0.0 1.0 0.00 0.18 0.18 91 1008.5
20260506200120 67 200 1.0 1.0 0.00 0.18 0.18 92 1008.4
20260506195617 66 154 1.0 1.0 0.00 0.18 0.18 91 1008.6
20260506195113 67 193 0.0 0.0 0.00 0.18 0.18 91 1008.8
20260506194611 67 205 0.0 0.0 0.00 0.18 0.18 92 1008.6
20260506194107 66 204 0.0 1.0 0.00 0.18 0.18 92 1008.7
20260506193605 66 215 0.0 1.0 0.00 0.18 0.18 92 1008.8
20260506193102 66 229 0.0 1.0 0.00 0.18 0.18 92 1008.7
20260506192558 66 204 0.0 0.0 0.00 0.18 0.18 93 1008.5
20260506192054 66 217 0.0 0.0 0.00 0.18 0.18 92 1008.8
20260506191551 66 195 0.0 0.0 0.00 0.18 0.18 92 1008.9
20260506191047 66 188 0.0 1.0 0.00 0.18 0.18 92 1008.9
20260506190544 66 177 0.0 1.0 0.00 0.18 0.18 92 1008.7
20260506190041 66 190 0.0 1.0 0.00 0.18 0.18 92 1008.9
20260506185539 66 115 0.0 0.0 0.00 0.18 0.18 92 1008.9
20260506185035 66 106 1.0 2.0 0.00 0.18 0.18 91 1009.0
20260506184533 66 125 1.0 3.0 0.00 0.18 0.18 91 1009.0
20260506184030 66 100 3.0 3.0 0.00 0.18 0.18 91 1009.0
20260506183525 66 102 0.0 2.0 0.00 0.18 0.18 91 1009.0
20260506183022 66 118 1.0 2.0 0.00 0.18 0.18 93 1009.0
20260506182520 66 85 0.0 0.0 0.00 0.18 0.18 95 1009.0
20260506182016 64 97 0.0 0.0 0.00 0.18 0.18 95 1009.3
20260506181514 65 13 1.0 1.0 0.00 0.18 0.18 94 1009.4
20260506181011 65 327 0.0 0.0 0.07 0.18 0.18 93 1009.2
20260506180508 65 357 0.0 0.0 0.07 0.18 0.18 92 1009.3
20260506180005 66 237 0.0 0.0 0.00 0.17 0.17 91 1009.4
20260506175501 66 237 0.0 0.0 0.00 0.17 0.17 91 1009.2
20260506174957 66 236 0.0 0.0 0.00 0.17 0.17 90 1009.2